GW2301 Weather Reports


time (UTC)temp
C
wind
direction
speed
KPH
gust
KPH
rain 1hr
cm
rain 24hr
cm
rain mn
cm
humidity
%
barometer
mb
20260508151708 20 244 8.0 14.5 0.00 0.00 0.00 35 1016.1
20260508151033 19 319 4.8 11.3 0.00 0.00 0.00 38 1016.2
20260508150525 19 204 4.8 14.5 0.00 0.00 0.00 36 1016.3
20260508150219 18 235 6.4 14.5 0.00 0.00 0.00 36 1016.4
20260508145520 19 196 3.2 11.3 0.00 0.00 0.00 36 1016.5
20260508145047 18 262 1.6 16.1 0.00 0.00 0.00 36 1016.4
20260508144701 18 219 6.4 16.1 0.00 0.00 0.00 39 1016.5
20260508144025 18 153 4.8 11.3 0.00 0.00 0.00 40 1016.4
20260508143526 17 180 3.2 12.9 0.00 0.00 0.00 42 1016.4
20260508143119 17 238 3.2 12.9 0.00 0.00 0.00 44 1016.7
20260508142536 17 198 3.2 12.9 0.00 0.00 0.00 44 1016.6
20260508142040 17 348 3.2 9.7 0.00 0.00 0.00 45 1016.6
20260508141617 17 159 3.2 11.3 0.00 0.00 0.00 46 1016.6
20260508141023 17 117 4.8 11.3 0.00 0.00 0.00 45 1016.5
20260508140538 16 292 3.2 12.9 0.00 0.00 0.00 47 1016.7
20260508140212 16 322 6.4 14.5 0.00 0.00 0.00 49 1016.8
20260508135530 15 206 4.8 12.9 0.00 0.00 0.00 49 1016.7
20260508135037 15 209 3.2 11.3 0.00 0.00 0.00 50 1016.6
20260508134641 15 188 4.8 9.7 0.00 0.00 0.00 50 1016.7
20260508134029 14 263 4.8 12.9 0.00 0.00 0.00 52 1016.8
20260508133538 14 248 4.8 12.9 0.00 0.00 0.00 51 1016.7
20260508133150 14 244 4.8 16.1 0.00 0.00 0.00 55 1016.9
20260508132521 13 229 4.8 16.1 0.00 0.00 0.00 55 1016.9
20260508132042 13 171 4.8 9.7 0.00 0.00 0.00 56 1016.7
20260508131703 13 163 3.2 8.0 0.00 0.00 0.00 58 1016.8
20260508131041 12 291 3.2 8.0 0.00 0.00 0.00 61 1016.8
20260508130532 12 202 1.6 9.7 0.00 0.00 0.00 67 1016.8
20260508130212 12 265 3.2 9.7 0.00 0.00 0.00 63 1016.7
20260508125543 12 177 3.2 8.0 0.00 0.00 0.00 66 1016.8
20260508125035 11 185 1.6 6.4 0.00 0.00 0.00 73 1017.0
20260508124649 10 219 0.0 3.2 0.00 0.00 0.00 83 1017.1
20260508124019 8 63 0.0 3.2 0.00 0.00 0.00 87 1016.9
20260508123528 7 76 0.0 3.2 0.00 0.00 0.00 90 1016.8
20260508123133 6 76 1.6 3.2 0.00 0.00 0.00 90 1016.7
20260508122532 6 73 0.0 3.2 0.00 0.00 0.00 91 1016.9
20260508122023 5 81 0.0 3.2 0.00 0.00 0.00 91 1016.7
20260508121658 5 113 0.0 1.6 0.00 0.00 0.00 91 1016.9
20260508121037 5 113 0.0 1.6 0.00 0.00 0.00 91 1017.0
20260508120535 4 113 0.0 1.6 0.00 0.00 0.00 92 1016.8
20260508120136 3 113 0.0 3.2 0.00 0.00 0.00 91 1016.9
20260508115527 3 114 0.0 3.2 0.00 0.00 0.00 92 1016.7
20260508115016 3 90 0.0 1.6 0.00 0.00 0.00 92 1016.6
20260508114704 3 93 0.0 1.6 0.00 0.00 0.00 92 1016.8
20260508114023 2 93 0.0 1.6 0.00 0.00 0.00 92 1016.7
20260508113521 2 90 0.0 1.6 0.00 0.00 0.00 92 1016.8
20260508113149 2 88 0.0 1.6 0.00 0.00 0.00 92 1016.8
20260508112523 2 88 0.0 1.6 0.00 0.00 0.00 92 1016.7
20260508112043 2 86 0.0 1.6 0.00 0.00 0.00 92 1016.7
20260508111623 1 52 0.0 1.6 0.00 0.00 0.00 92 1016.8
20260508111023 1 65 0.0 0.0 0.00 0.00 0.00 92 1016.7
20260508110522 1 65 0.0 0.0 0.00 0.00 0.00 92 1016.8
20260508110227 1 65 0.0 1.6 0.00 0.00 0.00 92 1016.7
20260508105545 1 65 0.0 1.6 0.00 0.00 0.00 92 1016.6
20260508105023 1 65 0.0 1.6 0.00 0.00 0.00 92 1016.6
20260508104634 1 64 0.0 1.6 0.00 0.00 0.00 92 1016.3
20260508104015 1 78 0.0 1.6 0.00 0.00 0.00 92 1016.3
20260508103536 1 78 0.0 3.2 0.00 0.00 0.00 92 1016.5
20260508103149 1 76 0.0 3.2 0.00 0.00 0.00 92 1016.4
20260508102530 1 106 0.0 1.6 0.00 0.00 0.00 92 1016.3
20260508102038 1 106 0.0 1.6 0.00 0.00 0.00 92 1016.2
20260508101727 1 108 0.0 1.6 0.00 0.00 0.00 92 1016.3
20260508101022 1 108 0.0 1.6 0.00 0.00 0.00 92 1016.2
20260508100516 1 108 0.0 1.6 0.00 0.00 0.00 92 1016.0
20260508100141 1 115 0.0 1.6 0.00 0.00 0.00 92 1016.2
20260508095519 1 117 0.0 1.6 0.00 0.00 0.00 92 1016.0
20260508095035 1 117 0.0 1.6 0.00 0.00 0.00 92 1016.0
20260508094706 1 128 0.0 1.6 0.00 0.00 0.00 92 1016.0
20260508094021 1 189 0.0 1.6 0.00 0.00 0.00 92 1016.0
20260508093525 1 189 0.0 1.6 0.00 0.00 0.00 92 1016.1
20260508093210 1 189 0.0 1.6 0.00 0.00 0.00 92 1016.0
20260508092526 1 189 0.0 1.6 0.00 0.00 0.00 92 1016.0
20260508092016 1 189 0.0 1.6 0.00 0.00 0.00 92 1016.1
20260508091608 1 189 0.0 1.6 0.00 0.00 0.00 92 1016.2
20260508091022 1 189 0.0 0.0 0.00 0.00 0.00 92 1016.2
20260508090523 1 189 0.0 0.0 0.00 0.00 0.00 92 1016.0
20260508090209 1 189 0.0 0.0 0.00 0.00 0.00 92 1015.9
20260508085541 1 189 0.0 0.0 0.00 0.00 0.00 92 1015.9
20260508085034 1 189 0.0 0.0 0.00 0.00 0.00 92 1015.9
20260508084648 1 189 0.0 0.0 0.00 0.00 0.00 92 1015.9
20260508084035 1 189 0.0 0.0 0.00 0.00 0.00 92 1015.8
20260508083524 1 189 0.0 0.0 0.00 0.00 0.00 92 1015.8
20260508083208 1 189 0.0 1.6 0.00 0.00 0.00 92 1015.8
20260508082528 1 189 0.0 1.6 0.00 0.00 0.00 92 1015.6
20260508082020 1 189 0.0 1.6 0.00 0.00 0.00 91 1015.7
20260508081727 2 189 0.0 1.6 0.00 0.00 0.00 92 1015.7
20260508081038 1 189 0.0 0.0 0.00 0.00 0.00 91 1015.7
20260508080542 2 189 0.0 0.0 0.00 0.00 0.00 91 1015.6
20260508080225 2 189 0.0 0.0 0.00 0.00 0.00 91 1015.6
20260508075523 2 189 0.0 0.0 0.00 0.00 0.00 91 1015.8
20260508075031 2 189 0.0 0.0 0.00 0.00 0.00 91 1015.7
20260508074710 2 189 0.0 1.6 0.00 0.00 0.00 91 1015.5
20260508074029 2 189 0.0 1.6 0.00 0.00 0.00 91 1015.7
20260508073521 2 189 0.0 1.6 0.00 0.00 0.00 91 1015.5
20260508073222 2 189 0.0 1.6 0.00 0.00 0.00 91 1015.6
20260508072523 2 189 0.0 1.6 0.00 0.00 0.00 91 1015.6
20260508072022 2 189 0.0 1.6 0.00 0.00 0.00 91 1015.5
20260508071739 2 189 0.0 0.0 0.00 0.00 0.00 91 1015.6
20260508071039 2 189 0.0 1.6 0.00 0.00 0.00 91 1015.5
20260508070535 2 189 0.0 1.6 0.00 0.00 0.00 91 1015.6
20260508070231 2 189 0.0 0.0 0.00 0.00 0.00 91 1015.7
20260508065543 2 189 0.0 0.0 0.00 0.00 0.00 91 1015.5
20260508065031 2 189 0.0 1.6 0.00 0.00 0.00 91 1015.5
20260508064649 2 189 0.0 1.6 0.00 0.00 0.00 91 1015.5
20260508064020 2 189 0.0 1.6 0.00 0.00 0.00 91 1015.7
20260508063542 2 189 0.0 0.0 0.00 0.00 0.00 91 1015.6
20260508063224 2 189 0.0 0.0 0.00 0.00 0.00 91 1015.8
20260508062543 2 189 0.0 1.6 0.00 0.00 0.00 91 1015.8
20260508062042 2 189 0.0 1.6 0.00 0.00 0.00 91 1015.9
20260508061653 2 189 0.0 1.6 0.00 0.00 0.00 91 1015.7
20260508061044 2 189 0.0 3.2 0.00 0.00 0.00 90 1015.8
20260508060518 2 189 0.0 3.2 0.00 0.00 0.00 91 1015.9
20260508060211 2 188 0.0 4.8 0.00 0.00 0.00 90 1015.8
20260508055525 2 183 1.6 4.8 0.00 0.00 0.00 90 1015.9
20260508055024 3 179 0.0 1.6 0.00 0.00 0.00 90 1016.0
20260508054706 3 193 0.0 0.0 0.00 0.00 0.00 90 1016.0
20260508054047 3 193 0.0 3.2 0.00 0.00 0.00 90 1015.8
20260508053520 3 193 0.0 3.2 0.00 0.00 0.00 90 1015.9
20260508053207 3 193 0.0 3.2 0.00 0.00 0.00 90 1015.9
20260508052548 3 193 0.0 0.0 0.00 0.00 0.00 90 1015.8
20260508052025 3 193 0.0 0.0 0.00 0.00 0.00 90 1015.9
20260508051703 3 193 0.0 0.0 0.00 0.00 0.00 90 1016.0
20260508051035 3 193 0.0 0.0 0.00 0.00 0.00 90 1015.7
20260508050539 3 193 0.0 1.6 0.00 0.00 0.00 90 1015.8
20260508050212 3 193 0.0 1.6 0.00 0.00 0.00 89 1015.8
20260508045533 3 193 0.0 1.6 0.00 0.00 0.00 89 1015.9
20260508045020 3 193 0.0 1.6 0.00 0.00 0.00 89 1015.9
20260508044625 3 193 0.0 1.6 0.00 0.00 0.00 89 1015.8
20260508044042 3 193 0.0 1.6 0.00 0.00 0.00 89 1015.8
20260508043533 3 193 0.0 3.2 0.00 0.00 0.00 89 1015.8
20260508043208 3 193 0.0 1.6 0.00 0.00 0.00 89 1015.8
20260508042522 3 193 0.0 3.2 0.00 0.00 0.00 89 1016.0
20260508042035 3 194 0.0 3.2 0.00 0.00 0.00 88 1015.9
20260508041705 4 192 0.0 3.2 0.00 0.00 0.00 88 1015.9
20260508041034 4 192 0.0 3.2 0.00 0.00 0.00 88 1015.9
20260508040531 4 198 0.0 3.2 0.00 0.00 0.00 88 1015.7
20260508040159 4 198 0.0 3.2 0.00 0.00 0.00 88 1015.8
20260508035535 4 198 0.0 3.2 0.00 0.00 0.00 87 1016.0
20260508035035 4 198 0.0 3.2 0.00 0.00 0.00 87 1015.9
20260508034644 5 198 0.0 3.2 0.00 0.00 0.00 87 1015.9
20260508034018 5 198 0.0 3.2 0.00 0.00 0.00 86 1015.8
20260508033517 5 198 0.0 3.2 0.00 0.00 0.00 86 1015.7
20260508033145 5 198 0.0 1.6 0.00 0.00 0.00 86 1015.8
20260508032535 5 198 0.0 1.6 0.00 0.00 0.00 85 1015.9
20260508032031 5 198 0.0 3.2 0.00 0.00 0.00 85 1015.9
20260508031618 5 198 0.0 3.2 0.00 0.00 0.00 85 1015.9
20260508031034 5 198 1.6 3.2 0.00 0.00 0.00 85 1016.0
20260508030534 5 198 0.0 3.2 0.00 0.00 0.00 84 1016.0
20260508030205 5 196 0.0 3.2 0.00 0.00 0.00 84 1015.9
20260508025523 5 237 0.0 3.2 0.00 0.00 0.00 83 1015.9
20260508025031 6 237 0.0 3.2 0.00 0.00 0.00 83 1015.9
20260508024628 6 237 0.0 3.2 0.00 0.00 0.00 82 1015.8
20260508024024 6 237 0.0 1.6 0.00 0.00 0.00 82 1015.7
20260508023531 6 237 0.0 0.0 0.00 0.00 0.00 81 1015.6
20260508023152 6 237 0.0 1.6 0.00 0.00 0.00 80 1015.5
20260508022534 6 237 0.0 3.2 0.00 0.00 0.00 79 1015.3
20260508022025 6 237 0.0 3.2 0.00 0.00 0.00 78 1015.4
20260508021653 7 352 0.0 0.0 0.00 0.00 0.00 78 1015.3
20260508021025 7 352 0.0 1.6 0.00 0.00 0.00 78 1015.3
20260508020542 7 352 0.0 1.6 0.00 0.00 0.00 77 1015.2
20260508020153 7 352 0.0 0.0 0.00 0.00 0.00 76 1015.1
20260508015521 7 352 0.0 1.6 0.00 0.00 0.00 76 1015.2
20260508015040 7 352 0.0 1.6 0.00 0.00 0.00 75 1014.9
20260508014647 7 352 0.0 1.6 0.00 0.00 0.00 73 1014.8
20260508014046 8 352 0.0 1.6 0.00 0.00 0.00 73 1014.7
20260508013537 8 352 0.0 1.6 0.00 0.00 0.00 71 1014.7
20260508013142 8 352 0.0 1.6 0.00 0.00 0.00 70 1014.5
20260508012536 8 352 0.0 1.6 0.00 0.00 0.00 70 1014.5
20260508012025 8 355 0.0 3.2 0.00 0.00 0.00 68 1014.3
20260508011705 9 352 0.0 3.2 0.00 0.00 0.00 66 1014.4
20260508011033 9 44 0.0 1.6 0.00 0.00 0.00 65 1014.4
20260508010542 10 44 0.0 1.6 0.00 0.00 0.00 65 1014.2
20260508010215 10 44 0.0 0.0 0.00 0.00 0.00 65 1014.1
20260508005534 10 44 0.0 0.0 0.00 0.00 0.00 65 1014.1
20260508005029 10 44 0.0 1.6 0.00 0.00 0.00 63 1014.1
20260508004710 11 44 0.0 1.6 0.00 0.00 0.00 62 1014.1
20260508004047 11 22 0.0 1.6 0.00 0.00 0.00 60 1014.2
20260508003532 11 22 0.0 3.2 0.00 0.00 0.00 60 1014.0
20260508003128 12 22 0.0 3.2 0.00 0.00 0.00 57 1014.0
20260508002534 12 22 0.0 3.2 0.00 0.00 0.00 56 1014.0
20260508002034 12 20 0.0 3.2 0.00 0.00 0.00 49 1013.7
20260508001700 12 20 0.0 3.2 0.00 0.00 0.00 48 1013.7
20260508001031 13 20 0.0 1.6 0.00 0.00 0.00 46 1013.7
20260508000528 13 20 0.0 3.2 0.00 0.00 0.00 49 1013.6
20260508000216 13 82 0.0 3.2 0.00 0.00 0.00 49 1013.6
20260507235546 13 171 0.0 3.2 0.00 0.00 0.00 46 1013.6
20260507235031 14 171 0.0 3.2 0.00 0.00 0.00 37 1013.5
20260507234657 15 70 0.0 3.2 0.00 0.00 0.00 38 1013.4
20260507234034 14 35 0.0 3.2 0.00 0.00 0.00 40 1013.4
20260507233536 15 5 1.6 8.0 0.00 0.00 0.00 39 1013.3
20260507233205 15 5 1.6 12.9 0.00 0.00 0.00 35 1013.2
20260507232546 15 186 1.6 6.4 0.00 0.00 0.00 34 1013.2
20260507232023 15 24 0.0 6.4 0.00 0.00 0.00 38 1013.1
20260507231656 15 146 3.2 6.4 0.00 0.00 0.00 33 1013.0
20260507231042 15 30 1.6 6.4 0.00 0.00 0.00 34 1013.2
20260507230533 16 86 1.6 6.4 0.00 0.00 0.00 35 1013.1
20260507230207 16 360 0.0 8.0 0.00 0.00 0.00 34 1013.3
20260507225536 16 51 1.6 11.3 0.00 0.00 0.00 37 1013.1
20260507225039 16 157 1.6 11.3 0.00 0.00 0.00 34 1013.2
20260507224653 16 5 3.2 9.7 0.00 0.00 0.00 33 1013.2
20260507224034 16 244 3.2 8.0 0.00 0.00 0.00 34 1013.3
20260507223524 16 111 3.2 8.0 0.00 0.00 0.00 35 1013.1
20260507223153 16 50 0.0 4.8 0.00 0.00 0.00 35 1013.1
20260507222523 16 69 1.6 8.0 0.00 0.00 0.00 35 1013.2
20260507222028 16 75 3.2 12.9 0.00 0.00 0.00 35 1012.9
20260507221614 17 5 3.2 12.9 0.00 0.00 0.00 35 1013.0
20260507221027 17 212 3.2 12.9 0.00 0.00 0.00 33 1013.0
20260507220539 17 213 4.8 14.5 0.00 0.00 0.00 34 1013.0
20260507220203 17 249 3.2 14.5 0.00 0.00 0.00 35 1013.1
20260507215532 17 59 4.8 9.7 0.00 0.00 0.00 36 1012.8
20260507215045 17 10 3.2 9.7 0.00 0.00 0.00 34 1012.8
20260507214648 18 188 4.8 14.5 0.00 0.00 0.00 33 1012.8
20260507214044 18 261 3.2 17.7 0.00 0.00 0.00 34 1012.6
20260507213523 18 295 8.0 17.7 0.00 0.00 0.00 33 1012.8
20260507213142 18 305 4.8 14.5 0.00 0.00 0.00 33 1012.7
20260507212542 18 237 3.2 9.7 0.00 0.00 0.00 35 1012.7
20260507212026 17 76 1.6 8.0 0.00 0.00 0.00 35 1012.4
20260507211636 18 350 3.2 11.3 0.00 0.00 0.00 36 1012.6
20260507211038 18 220 1.6 11.3 0.00 0.00 0.00 37 1012.5
20260507210522 17 36 1.6 12.9 0.00 0.00 0.00 37 1012.6
20260507210148 18 273 4.8 12.9 0.00 0.00 0.00 36 1012.4
20260507205518 18 28 1.6 8.0 0.00 0.00 0.00 37 1012.3
20260507205037 18 136 1.6 16.1 0.00 0.00 0.00 38 1012.3
20260507204656 18 30 1.6 8.0 0.00 0.00 0.00 38 1012.2
20260507204020 18 109 1.6 12.9 0.00 0.00 0.00 38 1012.4
20260507203536 17 62 6.4 12.9 0.00 0.00 0.00 38 1012.3
20260507203151 18 67 1.6 6.4 0.00 0.00 0.00 37 1012.4
20260507202547 18 331 0.0 8.0 0.00 0.00 0.00 36 1012.2
20260507202030 18 233 1.6 17.7 0.00 0.00 0.00 39 1012.1
20260507201653 18 268 6.4 17.7 0.00 0.00 0.00 36 1012.2
20260507201021 19 231 6.4 17.7 0.00 0.00 0.00 34 1012.4
20260507200521 20 190 8.0 17.7 0.00 0.00 0.00 34 1012.3
20260507200152 19 22 6.4 16.1 0.00 0.00 0.00 33 1012.3
20260507195522 19 58 3.2 17.7 0.00 0.00 0.00 33 1012.4
20260507195020 19 257 8.0 25.7 0.00 0.00 0.00 34 1012.4
20260507194647 19 238 11.3 25.7 0.00 0.00 0.00 32 1012.5
20260507194039 20 80 4.8 19.3 0.00 0.00 0.00 35 1012.5
20260507193520 19 232 4.8 19.3 0.00 0.00 0.00 31 1012.3
20260507193153 19 182 4.8 12.9 0.00 0.00 0.00 36 1012.5
20260507192537 17 82 1.6 12.9 0.00 0.00 0.00 42 1012.5
20260507192032 17 45 4.8 12.9 0.00 0.00 0.00 40 1012.6
20260507191610 18 34 3.2 14.5 0.00 0.00 0.00 37 1012.8
20260507191016 18 114 3.2 17.7 0.00 0.00 0.00 40 1012.8
20260507190521 17 57 8.0 17.7 0.00 0.00 0.00 41 1012.5
20260507190153 18 79 1.6 12.9 0.00 0.00 0.00 37 1012.9
20260507185542 19 207 8.0 14.5 0.00 0.00 0.00 35 1013.0
20260507185047 18 277 6.4 14.5 0.00 0.00 0.00 40 1013.2
20260507184642 17 229 4.8 19.3 0.00 0.00 0.00 41 1013.0
20260507184030 17 275 1.6 19.3 0.00 0.00 0.00 41 1013.1
20260507183521 17 236 6.4 11.3 0.00 0.00 0.00 39 1013.3
20260507183139 18 175 6.4 12.9 0.00 0.00 0.00 39 1013.1
20260507182521 18 245 1.6 14.5 0.00 0.00 0.00 40 1013.2
20260507182024 19 251 6.4 16.1 0.00 0.00 0.00 39 1013.4
20260507181600 18 267 6.4 14.5 0.00 0.00 0.00 41 1013.3
20260507181023 18 142 3.2 8.0 0.00 0.00 0.00 41 1013.4
20260507180517 17 262 1.6 9.7 0.00 0.00 0.00 41 1013.3
20260507180156 18 277 4.8 16.1 0.00 0.00 0.00 41 1013.3
20260507175543 18 46 4.8 16.1 0.00 0.00 0.00 38 1013.3
20260507175026 17 176 3.2 16.1 0.00 0.00 0.00 42 1013.5
20260507174635 17 46 3.2 16.1 0.00 0.00 0.00 40 1013.5
20260507174020 17 194 3.2 16.1 0.00 0.00 0.00 40 1013.5
20260507173520 18 224 4.8 17.7 0.00 0.00 0.00 37 1013.7
20260507173143 18 181 6.4 16.1 0.00 0.00 0.00 36 1013.6
20260507172531 18 261 6.4 14.5 0.00 0.00 0.00 39 1013.6
20260507172037 17 186 3.2 14.5 0.00 0.00 0.00 41 1013.7
20260507171632 18 308 3.2 11.3 0.00 0.00 0.00 40 1013.7
20260507171029 17 172 1.6 16.1 0.00 0.00 0.00 43 1013.6
20260507170531 18 188 1.6 16.1 0.00 0.00 0.00 44 1013.8
20260507170147 18 315 1.6 14.5 0.00 0.00 0.00 41 1013.8
20260507165538 18 187 3.2 14.5 0.00 0.00 0.00 39 1014.0
20260507165031 18 178 4.8 14.5 0.00 0.00 0.00 43 1013.9
20260507164635 17 219 6.4 14.5 0.00 0.00 0.00 41 1013.9
20260507164029 17 245 9.7 16.1 0.00 0.00 0.00 43 1014.1
20260507163525 17 211 9.7 14.5 0.00 0.00 0.00 44 1014.0
20260507163108 17 232 4.8 11.3 0.00 0.00 0.00 43 1013.9
20260507162519 18 234 1.6 14.5 0.00 0.00 0.00 44 1013.9
20260507162044 17 228 6.4 17.7 0.00 0.00 0.00 44 1014.0
20260507161633 17 209 0.0 12.9 0.00 0.00 0.00 45 1014.1
20260507161040 17 242 6.4 11.3 0.00 0.00 0.00 44 1014.0
20260507160526 16 201 3.2 11.3 0.00 0.00 0.00 47 1014.2
20260507160151 16 225 6.4 11.3 0.00 0.00 0.00 47 1014.1
20260507155529 16 41 3.2 9.7 0.00 0.00 0.00 47 1014.1
20260507155020 17 176 0.0 11.3 0.00 0.00 0.00 45 1014.0
20260507154640 17 111 3.2 11.3 0.00 0.00 0.00 47 1014.1
20260507154020 16 59 1.6 9.7 0.00 0.00 0.00 48 1014.0
20260507153543 16 227 1.6 9.7 0.00 0.00 0.00 47 1014.1
20260507153148 17 240 4.8 9.7 0.00 0.00 0.00 44 1014.0
20260507152538 16 264 3.2 8.0 0.00 0.00 0.00 48 1013.9
20260507152025 15 219 4.8 8.0 0.00 0.00 0.00 53 1014.1